Theta_e
349 349 349 345 346 345 343 342 341 338 337 336 336 335 336 335 335 336 334 335 333 328
344 344 343 343 340 335 335 335 335 333 333 333 333 333 335 333 335 335 334 333 334 329
334 336 340 340 338 337 330 330 331 330 331 331 331 333 333 333 335 334 332 331 332 330
338 339 338 339 339 331 331 330 329 329 329 328 328 330 334 334 334 331 333 332 331 330
336 337 336 335 337 338 332 332 331 331 329 328 329 329 331 332 331 330 327 327 329 328
333 335 336 337 337 337 335 335 332 332 329 328 326 329 331 334 330 328 328 326 329 329
330 332 333 334 333 332 332 332 332 331 332 331 331 332 333 332 331 329 327 328 330 329
329 331 332 333 333 331 334 332 333 332 333 334 334 334 334 335 333 330 328 327 331 331
325 326 327 330 331 331 330 331 333 333 333 333 333 320 317 329 336 330 328 327 331 332
322 321 322 325 326 328 329 326 327 329 330 330 331 312 312 314 333 334 332 328 328 329
319 319 320 320 321 324 326 327 327 327 330 331 333 313 309 311 328 334 334 333 330 328
320 318 318 317 319 320 318 319 323 327 329 330 334 311 306 310 326 327 328 329 329 326
321 318 317 318 319 318 319 321 323 323 327 324 333 312 305 310 327 325 326 327 327 314
321 319 318 317 318 317 318 319 321 325 330 327 330 330 303 303 327 326 327 326 322 321
Wind_Speed
11 8 8 7 5 3 2 4 5 5 6 6 8 9 9 8 8 8 8 10 8 6
5 8 8 9 10 9 8 8 9 6 5 5 5 7 7 7 9 8 8 8 8 6
3 5 9 11 13 14 10 13 9 5 6 7 3 7 9 7 9 8 8 7 8 7
3 7 10 11 12 11 12 14 16 13 10 7 3 9 12 11 11 11 9 8 10 9
4 4 6 8 8 7 6 9 11 15 14 12 11 14 16 15 12 13 10 9 9 10
8 4 7 5 8 9 8 11 13 12 13 14 15 18 18 17 12 11 10 10 11 12
8 8 6 3 4 6 9 11 13 10 15 14 14 15 16 14 12 8 7 8 12 12
6 5 5 5 2 5 8 11 12 14 15 15 14 12 13 14 15 13 10 7 8 13
6 6 6 5 4 4 5 5 10 12 14 13 10 13 14 12 12 13 13 11 14 13
5 6 6 6 5 4 5 5 6 6 10 12 13 13 15 17 13 14 13 12 11 12
4 5 5 5 6 6 5 6 7 9 11 11 11 15 19 19 17 14 16 17 17 16
2 5 5 5 6 6 7 7 7 8 11 13 13 13 16 14 12 13 13 14 14 14
5 3 4 6 8 7 8 8 7 8 9 13 14 12 14 14 8 9 7 8 13 20
7 4 1 4 5 6 8 9 9 9 8 9 12 10 13 16 10 8 8 8 6 7
Wind_Direction
221 214 211 194 166 162 188 340 326 246 248 210 221 224 209 190 195 197 205 202 210 214
189 191 188 148 133 118 106 77 48 24 326 299 280 251 222 216 199 197 203 201 195 201
159 179 182 165 157 149 153 129 114 84 43 326 305 282 243 222 216 200 207 203 195 188
255 202 185 197 185 178 171 164 151 166 176 192 218 270 261 244 225 199 196 210 199 191
290 260 216 212 213 234 212 171 162 175 189 190 189 220 235 230 221 222 190 181 206 201
11 332 272 240 208 194 211 201 201 192 207 209 204 200 226 224 212 208 204 187 181 216
13 5 346 299 289 198 191 201 207 213 209 217 205 216 215 209 203 200 214 208 183 211
21 33 21 353 321 259 225 211 215 218 227 223 210 210 199 202 203 200 201 187 217 217
12 26 31 26 354 304 259 261 229 222 226 223 221 211 204 211 219 210 211 198 213 226
356 360 13 360 354 335 285 282 257 247 225 223 225 211 217 214 213 214 209 214 207 212
338 336 346 347 332 320 308 282 262 255 239 229 229 224 220 214 219 222 217 217 213 212
291 309 323 340 336 333 318 301 292 273 254 248 245 222 215 201 212 227 219 213 208 206
270 280 333 337 339 328 312 304 292 285 268 275 252 222 216 201 215 217 221 215 210 192
269 266 286 338 326 318 315 310 303 291 277 252 253 244 209 208 212 210 208 224 196 190